Location: Temagami
(47.0645°N, 79.7909°W)
Time: 19:00:14
(UTC-05:00)

ISS - Visible Passes

Search period start: 18 November 2019 00:00
Search period end: 28 November 2019 00:00
Orbit: 412 x 421 km, 51.6° (Epoch: 19 November)

Date Brightness Start Highest point End Pass type
(mag) Time Alt. Az. Time Alt. Az. Time Alt. Az.
20 Nov -1.0 18:40:48 10° S 18:40:56 11° S 18:40:56 11° S visible
21 Nov -0.6 19:27:32 10° SW 19:27:48 12° SW 19:27:48 12° SW visible
22 Nov -2.4 18:39:25 10° SSW 18:41:38 29° S 18:41:38 29° S visible
23 Nov -2.2 17:51:33 10° SSW 17:54:14 23° SE 17:55:23 19° ESE visible
23 Nov -0.9 19:27:21 10° WSW 19:28:18 18° WSW 19:28:18 18° WSW visible
24 Nov -3.6 18:38:56 10° WSW 18:41:58 69° SSW 18:41:58 69° SSW visible
25 Nov -3.4 17:50:38 10° SW 17:53:53 51° SSE 17:55:33 25° E visible
25 Nov -0.9 19:27:28 10° W 19:28:28 18° W 19:28:28 18° W visible
26 Nov -2.6 17:02:30 10° SSW 17:05:32 33° SE 17:08:36 10° ENE visible
26 Nov -3.3 18:38:52 10° W 18:42:00 55° NW 18:42:00 55° NW visible
27 Nov -3.8 17:50:20 10° WSW 17:53:41 77° NNW 17:55:30 25° ENE visible
27 Nov -0.8 19:27:35 10° WNW 19:28:24 16° WNW 19:28:24 16° WNW visible
